Погода в Широком

Украина / Запорожская область     47°25′10″N   35°24′58″E
темп.,
°C
ветер,
м/с
пор.,
м/с
влажн.,
%
обл.,
%
осадки,
мм/ч
давл.,
гПа
погр.,
м
20 апреля, вт
вт2000:00+9в117196 0.0 101210
03:00+10св3372100 0.0 100956
06:00+9в3678100 0.1 1008154
09:00+9всв4892100 1.5 1006410
12:00+9ссв2396100 5.8 1004279
15:00+10юз1391100 7.9 1002493
18:00+9з81193100 0.3 1003696
21:00+9з81393100 1.1 1006552
21 апреля, ср
ср2100:00+8зюз61189100 0.1 1009281
03:00+6зюз4108799 0.1 1011224
06:00+5юз47894 0.0 1012135
09:00+11зюз46685 0.0 1014517
12:00+14зюз6754100 0.4 10151590
15:00+14зюз5856100 0.7 10151229
18:00+13юз69655 0.3 10161115
21:00+9ююз49805 0.6 1018164
22 апреля, чт
чт2200:00+8ююз47890 0.0 1018131
03:00+7ююз35920 0.0 101975
06:00+6ююз34932 0.0 102069
09:00+12ююз44705 0.0 1021450
12:00+16юз44523 0.1 10211454
15:00+18зюз3443100 1.3 10202362
18:00+14юз126383 0.4 102125
21:00+11ю458149 1.6 102278
23 апреля, пт
пт2300:00+9юз36852 0.0 1022111
03:00+8ююз34864 0.0 102256
06:00+7ююз34880 0.0 102262
09:00+13ююз46641 0.0 1022463
12:00+17ююз56462 0.0 10211718
15:00+18ююз674049 0.0 10202419
18:00+15ю78541 0.0 1019828
21:00+11ю611756 0.0 1019272
24 апреля, сб
сб2400:00+9ююв51276100 0.0 1018284
03:00+8ююз3987100 0.0 1017224
06:00+9зюз4890100 0.0 1017602
09:00+7сз687994 0.2 1019767
12:00+12з685313 0.0 10191552
15:00+13з911420 0.0 10181854
18:00+10зсз89450 0.0 10201548
21:00+6сз48550 0.0 1021160